Location: Waco, TX
(31.5480°N, 97.1670°W)
Time: 23:58:17
(UTC-06:00)

ISS - Pass Details

Date: 17 November 2018
Orbit: 402 x 408 km, 51.6° (Epoch: 16 November)

Event Time Altitude Azimuth Distance (km) Brightness Sun altitude
Rises 20:27:11 0° 218° (SW) 2,299 - -37.9°
Reaches altitude 10° 20:29:15 10° 216° (SW) 1,443 - -38.4°
Maximum altitude 20:32:27 66° 134° (SE) 439 - -39.0°
Drops below altitude 10° 20:35:41 10° 50° (NE) 1,450 - -39.7°
Sets 20:37:46 0° 48° (NE) 2,311 - -40.2°
